{"data":{"norad_id":60150,"epoch":"2026-09-21T20:24:27.617760Z","epoch_age_seconds":64806,"freshness":"FRESH","line1":"1 60150U 24120R   26264.85031965 -.00001975  00000+0 -47340-4 0  9993","line2":"2 60150  53.1585 125.6282 0001055  96.7993 263.3129 15.34391998126457","mean_motion":15.34391998,"eccentricity":0.0001055,"inclination_deg":53.1585,"raan_deg":125.6282,"arg_perigee_deg":96.7993,"mean_anomaly_deg":263.3129,"bstar":-4.734e-5,"rev_number":12645,"period_min":93.848247506306,"perigee_km":462.00531278629,"apogee_km":463.44873509534,"semimajor_km":6840.8640239408,"source":"CELESTRAK","updated_at":"2026-09-22T09:00:49.179796Z"}}